This is the latest recevied weather packets stored in our database for station/object SQ9RHX-13. If no packets are shown the sender has not sent any weather packets the latest 10 day(s).
| Time | Temp. | Humidity | Pressure | Rain* | Wind** | Luminosity | Snow |
|---|---|---|---|---|---|---|---|
| 1777862703 | 14.44° C | 49% | 1016.5 hPa | 0 mm | - | 0 W/m² | - |
| 1777862403 | 14.44° C | 48% | 1016.4 hPa | 0 mm | - | 0 W/m² | - |
| 1777862103 | 15° C | 48% | 1016.4 hPa | 0 mm | - | 0 W/m² | - |
| 1777861804 | 15° C | 47% | 1016.5 hPa | 0 mm | - | 0 W/m² | - |
| 1777861504 | 15.56° C | 46% | 1016.5 hPa | 0 mm | - | 0 W/m² | - |
| 1777861203 | 15.56° C | 45% | 1016.6 hPa | 0 mm | - | 0 W/m² | - |
| 1777860903 | 16.11° C | 45% | 1016.5 hPa | 0 mm | - | 0 W/m² | - |
| 1777860603 | 16.11° C | 44% | 1016.4 hPa | 0 mm | - | 0 W/m² | - |
| 1777860303 | 16.11° C | 44% | 1016.3 hPa | 0 mm | - | 0 W/m² | - |
| 1777860004 | 16.11° C | 44% | 1016.7 hPa | 0 mm | - | 0 W/m² | - |
| 1777859702 | 16.11° C | 43% | 1016.5 hPa | 0 mm | - | 0 W/m² | - |
| 1777859405 | 16.11° C | 44% | 1016.4 hPa | 0 mm | - | 0 W/m² | - |
| 1777859103 | 16.67° C | 43% | 1016.6 hPa | 0 mm | - | 0 W/m² | - |
| 1777858805 | 16.67° C | 43% | 1016.4 hPa | 0 mm | - | 0 W/m² | - |
| 1777858503 | 16.67° C | 43% | 1016.4 hPa | 0 mm | - | 0 W/m² | - |
| 1777858203 | 16.67° C | 43% | 1016.6 hPa | 0 mm | - | 0 W/m² | - |
| 1777857904 | 16.67° C | 43% | 1016.4 hPa | 0 mm | - | 0 W/m² | - |
| 1777857604 | 16.67° C | 42% | 1016.4 hPa | 0 mm | - | 0 W/m² | - |
| 1777857304 | 16.67° C | 42% | 1016.4 hPa | 0 mm | - | 0 W/m² | - |
| 1777857004 | 17.22° C | 42% | 1016.3 hPa | 0 mm | - | 0 W/m² | - |
| 1777856704 | 16.67° C | 42% | 1016.5 hPa | 0 mm | - | 0 W/m² | - |
| 1777856402 | 16.67° C | 43% | 1016.4 hPa | 0 mm | - | 0 W/m² | - |
| 1777856103 | 16.67° C | 42% | 1016.5 hPa | 0 mm | - | 0 W/m² | - |
| 1777855804 | 16.67° C | 42% | 1016.4 hPa | 0 mm | - | 0 W/m² | - |
| 1777855504 | 17.22° C | 42% | 1016.3 hPa | 0 mm | - | 0 W/m² | - |
* Rain latest hour (hover to see other rain measurements)
** Current wind speed in m/s (hover to see current wind gust speed)